Flag for China Weather past 2 weeks in Shenzhen, Guangdong, China

Now
91 °F

Scattered clouds.


Feels Like: 111 °F
Forecast: 76 / 88 °F
Wind: 13 mph from Northwest

Location: Shenzhen Airport

Current Time: Sep 19, 2014 at 2:30:47 PM

Latest Report: Sep 19, 2014 at 1:00 PM


Visibility: 4 mi

Pressure: 29.71 "Hg

Humidity: 71%

Dew point: 81 °F

Location of ShenzhenLocation

Historic Weather in Shenzhen — Graph

°F

Shenzhen temperature yesterday

Maximum temperature yesterday: 90 °F (at 2:00 PM)
Minimum temperature yesterday: 81 °F (at 5:00 AM)
Average temperature yesterday: 85 °F

Past Weeks' High & Low Weather Summary

 TemperatureHumidityPressure
High93 °F (Sep 4, 3:00 PM)94% (Sep 10, 6:00 AM)29.95 "Hg (Sep 10, 6:00 AM)
Low79 °F (Sep 12, 1:00 PM)56% (Sep 15, 2:00 PM)29.50 "Hg (Sep 15, 3:00 PM)
Average85 °F78%29.73 "Hg
* Reported Sep 4 1:00 PM — Sep 19 1:00 PM, Shenzhen, Weather by CustomWeather, © 2014

Note: Actual official high and low records may vary slightly from our data, if they occured in-between our weather recording intervals... More about our weather records

Advertising

Shenzhen weather history for previous 24 hours

 ConditionsComfort  
Time TempWeatherWind HumidityBarometerVisibility
1:00 PM
Sep 19
91 °FScattered clouds.13 mph71%29.71 "Hg4 mi
12:00 PM91 °FScattered clouds.10 mph71%29.74 "Hg3 mi
11:00 AM90 °FScattered clouds.10 mph71%29.77 "Hg2 mi
10:00 AM90 °FFog.8 mph75%29.80 "Hg2 mi
9:00 AM86 °FFog.8 mph84%29.80 "Hg2 mi
8:00 AM84 °FFog.8 mph84%29.80 "Hg2 mi
7:00 AM84 °FFog.6 mph84%29.77 "Hg2 mi
6:00 AM82 °FFog.8 mph89%29.77 "Hg2 mi
5:00 AM82 °FFog.6 mph89%29.77 "Hg3 mi
4:00 AM82 °FClear.6 mph89%29.77 "Hg10 mi
3:00 AM84 °FClear.6 mph84%29.80 "Hg10 mi
2:00 AM84 °FPassing clouds.3 mph84%29.80 "HgN/A
1:00 AM84 °FClear.1 mph84%29.83 "Hg10 mi
12:00 AM84 °FClear.3 mph84%29.83 "Hg10 mi
11:00 PM
Sep 18
84 °FClear.6 mph84%29.86 "Hg10 mi
10:00 PM86 °FClear.6 mph79%29.86 "Hg10 mi
9:00 PM86 °FClear.6 mph79%29.86 "Hg10 mi
8:00 PM86 °FClear.6 mph75%29.83 "Hg10 mi
7:00 PM86 °FClear.3 mph75%29.83 "Hg10 mi
6:00 PM86 °FSunny.6 mph79%29.80 "Hg10 mi
5:00 PM88 °FSunny.6 mph75%29.83 "Hg10 mi
4:00 PM88 °FSunny.8 mph70%29.83 "Hg10 mi
3:00 PM90 °FPassing clouds.8 mph71%29.83 "HgN/A
2:00 PM90 °FPassing clouds.6 mph67%29.86 "HgN/A
Weather by CustomWeather, © 2014

See weather overviewHow to use our weather pages